GFSSE_sfc_30mbdewp_276.txt.gz
Dewpoint
70 72 73 72 72 72 72 72 72 72 72 71 70 69 69 69 70 71 72 71 71 71 70 70 70 70 68 69 70 69 69 69 69 69 69 68 69 69 69 69 68 68 69
71 72 73 72 72 71 72 72 72 71 71 71 70 70 70 69 70 71 71 72 72 71 70 70 70 69 68 70 69 71 70 70 70 69 68 69 69 69 68 68 68 67 67
71 72 72 73 72 72 72 72 71 71 72 71 71 71 71 70 70 70 71 71 72 71 71 70 70 70 69 69 70 71 69 71 71 70 70 69 69 69 69 68 68 67 67
70 72 73 73 73 72 72 72 71 72 72 71 71 71 71 70 70 70 70 71 71 71 71 71 71 70 69 69 70 70 69 70 69 69 69 68 68 68 69 68 68 66 66
70 72 72 73 73 73 72 72 71 72 71 71 71 71 72 71 70 70 70 70 71 71 72 71 70 69 70 70 70 70 70 69 69 68 68 68 68 68 68 68 67 66 66
71 72 73 72 72 73 73 73 72 72 71 71 72 72 71 71 71 71 71 71 71 71 71 71 71 71 70 70 70 69 69 69 69 68 68 70 69 70 69 69 68 67 67
71 73 73 73 72 73 72 73 72 72 72 71 71 72 71 71 72 72 72 71 72 72 71 71 71 70 70 70 69 70 70 70 68 68 69 69 70 71 69 68 68 69 68
72 72 72 72 73 73 72 72 72 72 72 72 72 72 72 72 72 72 72 71 72 72 71 70 70 69 69 69 69 70 70 69 67 69 69 70 71 71 69 69 69 68 69
71 71 72 72 72 72 72 72 72 73 72 73 72 72 72 71 72 72 72 72 72 71 71 70 70 70 70 70 70 71 68 70 67 69 70 71 73 71 70 70 70 69 68
70 71 71 72 72 72 72 72 72 71 73 72 72 72 72 71 71 71 72 72 71 71 70 70 71 71 71 70 70 70 70 71 68 69 69 72 73 70 70 70 70 69 69
69 70 71 72 72 72 71 72 72 71 71 72 72 72 72 72 72 72 73 71 72 72 71 70 71 71 71 71 70 71 70 69 68 68 70 72 74 71 70 70 70 70 69
66 68 71 71 71 71 72 72 71 72 72 71 71 72 72 71 71 72 73 72 72 72 71 71 71 71 71 70 69 70 70 70 66 67 69 71 73 70 71 70 71 71 70
64 64 68 69 69 68 69 71 71 71 71 71 71 71 71 71 72 71 72 71 72 72 72 72 71 71 70 70 69 68 67 66 68 67 68 72 73 71 71 71 71 72 70
62 65 67 67 67 66 69 69 70 70 70 71 70 70 70 70 71 68 71 71 72 72 72 71 71 71 71 70 69 67 67 67 67 66 67 72 72 74 71 72 72 70 71
62 65 66 65 66 69 69 69 70 69 69 70 69 70 70 70 69 70 69 70 70 70 70 70 69 69 70 69 69 68 66 64 63 64 66 72 71 71 73 71 72 72 70
62 62 64 64 67 68 69 69 69 69 69 70 69 68 69 69 70 70 70 70 70 70 70 69 69 69 69 69 68 66 66 67 66 66 66 71 72 71 72 71 71 71 71
63 65 66 68 69 69 68 68 67 68 70 70 69 70 69 69 70 70 69 69 69 70 70 69 70 70 70 69 69 69 69 69 68 68 68 69 71 72 71 72 70 72 72
65 66 67 67 69 70 69 68 68 68 68 68 70 70 69 69 70 70 69 70 70 70 71 70 70 69 70 69 68 68 69 70 70 69 70 69 70 71 71 70 69 69 71
64 65 66 66 68 70 69 70 69 67 67 69 70 71 68 70 71 70 70 70 70 70 70 70 70 69 66 66 65 69 69 69 70 71 71 71 70 71 71 71 69 70 69
63 65 65 66 67 69 69 69 70 69 68 70 70 70 71 71 70 70 70 71 70 70 70 71 69 70 68 67 68 69 70 69 67 68 71 72 72 71 71 72 72 71 70
62 62 63 65 67 69 68 67 67 67 68 69 70 70 71 70 71 69 70 70 70 70 69 70 69 69 68 70 68 67 68 68 65 68 69 68 68 71 71 71 70 70 68
62 63 64 65 69 69 68 68 69 68 67 67 70 70 70 70 71 72 70 70 70 70 70 69 69 69 69 69 66 67 63 65 66 65 69 67 68 68 68 67 69 68 69
62 62 65 65 67 69 69 70 70 70 70 70 67 66 65 65 69 71 71 70 69 71 70 70 70 69 67 67 69 66 62 60 63 66 62 67 69 67 68 68 66 67 69
61 62 66 66 66 68 68 68 67 65 65 68 68 64 66 67 71 73 72 72 72 72 71 71 71 70 68 66 68 69 68 65 62 59 65 65 66 66 67 69 68 69 69
63 65 68 67 67 68 69 68 68 65 66 69 68 67 69 69 72 71 70 71 71 70 71 71 70 69 69 68 68 68 69 68 68 66 62 62 65 66 69 69 71 69 69
66 67 68 68 67 67 69 70 69 67 69 69 68 68 70 71 71 70 70 70 68 66 67 67 66 66 66 70 68 68 66 66 63 66 65 64 64 62 63 68 67 68 68

GFSSE_sfc_30mbdewp_279.txt.gz
Dewpoint
70 72 72 72 72 72 72 72 72 71 70 70 70 70 70 71 71 70 72 71 70 69 66 68 70 69 69 70 70 70 70 68 68 68 68 69 70 70 69 69 70 70 70
71 72 72 72 72 72 72 72 72 71 70 70 69 70 70 71 71 72 72 71 71 69 70 70 70 69 68 70 70 70 70 69 69 69 69 69 69 68 68 68 67 68 68
71 72 73 72 71 72 72 72 72 71 70 71 70 69 70 71 71 71 71 71 71 71 70 70 69 68 70 70 70 69 70 70 70 70 70 69 69 68 68 68 68 68 67
72 72 73 73 72 72 72 72 71 71 71 71 71 70 70 70 71 71 71 72 72 71 70 69 69 69 69 70 70 69 70 70 70 70 69 68 68 69 68 68 66 67 67
72 73 73 73 72 71 71 72 72 72 72 72 71 71 70 70 70 71 71 71 71 71 70 71 69 69 70 70 69 70 70 69 69 69 68 68 68 69 68 68 66 67 67
72 72 73 73 72 72 71 72 72 72 72 71 72 71 72 70 70 69 70 70 71 72 71 70 70 70 70 70 70 70 70 70 70 68 68 70 69 69 69 68 67 67 67
71 72 72 73 73 72 72 72 72 71 72 72 72 72 72 72 71 71 72 71 72 72 71 71 70 70 70 70 70 70 70 70 68 68 69 69 70 70 69 68 68 67 67
72 72 73 72 73 72 73 72 72 72 71 72 72 71 72 71 72 72 72 72 72 71 71 71 70 70 70 70 70 70 70 70 69 68 69 69 71 70 69 68 68 69 68
72 72 72 72 72 71 72 72 72 72 72 72 72 72 72 72 72 72 71 72 72 72 70 70 70 69 70 70 70 71 70 69 68 69 69 70 72 70 69 70 69 68 69
71 71 72 71 72 72 71 72 72 72 73 72 72 72 71 72 72 72 73 72 71 71 69 70 70 70 71 70 70 70 70 71 67 68 70 70 73 71 70 70 70 68 69
70 71 72 71 72 72 72 72 71 73 72 72 72 73 73 71 72 71 72 71 71 71 70 71 71 71 71 71 71 71 70 69 67 68 69 71 73 71 70 70 70 69 69
68 70 71 71 71 71 72 72 71 71 71 72 72 72 72 72 72 72 72 72 72 72 71 71 71 71 71 70 69 69 69 70 68 68 69 71 72 72 70 70 70 70 69
67 68 71 71 71 71 71 71 71 71 71 71 71 72 72 71 72 73 72 72 72 72 71 71 71 71 70 70 69 68 67 67 68 67 68 71 71 72 71 71 71 71 70
65 67 69 70 69 70 71 71 71 71 71 71 71 70 70 71 70 70 70 71 71 71 72 71 71 71 71 71 70 69 67 67 68 67 67 71 71 71 70 71 71 71 70
62 64 67 68 68 67 69 69 70 70 70 70 70 70 70 70 70 70 69 71 71 71 71 71 70 69 70 69 70 69 68 67 66 66 66 70 72 71 71 71 72 71 71
62 66 67 67 67 67 69 69 69 69 70 69 69 69 70 70 70 70 69 69 70 70 70 69 69 68 69 69 69 69 68 67 68 66 66 67 73 71 70 71 72 72 71
63 65 65 65 66 68 69 69 69 69 69 70 69 69 69 69 69 70 70 69 69 70 70 70 69 69 70 70 69 69 68 69 69 67 68 68 72 72 70 69 70 71 72
63 63 65 64 67 68 69 69 68 68 68 69 69 69 70 70 70 69 70 69 70 69 69 70 69 69 69 70 69 68 69 70 71 69 69 69 69 71 72 70 69 70 69
63 64 65 67 68 68 69 69 68 67 67 69 70 70 70 68 70 70 70 70 70 70 70 70 70 70 68 67 66 66 69 70 70 71 70 69 70 71 71 70 70 69 70
64 66 66 67 69 69 69 69 69 68 67 69 70 70 70 69 71 70 70 70 71 70 70 71 69 70 68 67 68 68 70 68 67 69 71 72 72 71 71 71 72 70 70
65 66 66 66 68 69 68 67 67 66 67 68 69 70 70 71 70 70 70 71 70 69 69 70 70 68 68 69 68 66 67 68 66 67 69 70 70 71 71 72 72 71 72
63 65 65 66 68 68 68 67 67 67 68 68 69 71 70 70 71 72 71 70 70 69 69 69 69 68 69 69 66 66 63 65 66 66 67 69 66 69 70 71 70 70 68
62 63 64 66 68 68 69 68 70 70 69 68 66 67 66 67 69 71 71 70 69 71 70 70 69 68 67 67 69 66 61 58 62 65 62 67 65 68 66 69 68 68 69
62 64 65 66 68 68 69 67 68 67 66 66 67 66 65 67 71 72 71 72 71 72 70 71 70 70 68 65 68 69 67 64 60 59 65 65 65 67 68 69 68 67 69
61 63 66 67 68 69 68 69 67 65 66 68 68 66 66 68 72 71 71 71 70 70 69 69 69 68 69 67 67 67 68 68 68 65 61 62 65 65 66 68 69 69 69
62 62 66 66 67 68 69 68 68 66 66 68 68 67 69 70 70 70 70 69 66 66 66 65 64 65 66 69 68 67 65 64 60 65 65 64 62 63 58 65 68 69 69

GFSSE_sfc_30mbdewp_285.txt.gz
Dewpoint
68 70 72 72 72 72 72 72 72 71 70 70 70 71 71 71 71 71 71 69 67 67 68 69 70 70 69 70 70 70 70 69 69 70 70 70 70 70 70 70 68 66 69
70 71 72 72 72 72 72 71 71 69 69 70 71 71 71 71 71 72 69 68 67 67 68 69 69 69 70 71 69 69 69 69 70 70 70 69 69 68 68 69 68 67 68
68 70 71 72 72 72 72 71 71 71 70 71 71 71 71 71 71 71 69 66 66 68 68 68 69 69 70 70 69 69 70 70 71 70 67 65 67 68 69 68 68 67 67
69 68 68 73 72 72 72 72 71 71 71 71 70 71 72 72 72 72 69 69 68 69 68 68 70 71 70 71 71 71 71 70 70 69 66 65 65 68 68 68 68 68 68
69 69 69 72 72 72 72 72 72 72 71 71 71 72 72 73 72 71 70 69 69 69 69 70 71 70 69 70 70 70 70 69 69 67 67 67 65 68 68 68 68 68 67
68 69 72 71 72 72 72 72 72 72 72 71 70 71 71 70 69 69 69 69 70 70 70 71 70 69 70 71 71 71 71 69 68 66 66 68 66 68 68 67 68 68 68
69 69 69 72 72 72 72 72 72 72 72 72 71 70 69 69 65 65 70 71 72 70 71 71 70 70 71 71 70 70 70 70 66 67 67 66 67 69 68 68 68 68 68
68 69 71 72 72 72 72 72 72 72 72 72 71 70 70 70 70 70 72 73 72 71 71 71 70 70 70 70 70 70 70 70 67 66 67 67 70 69 68 69 69 68 68
69 69 70 71 71 72 72 72 72 72 72 71 71 71 71 72 72 72 72 72 71 71 71 71 71 70 70 70 70 71 71 71 68 66 65 66 72 69 69 69 69 69 68
68 69 69 71 70 70 70 72 72 72 72 72 72 72 72 72 72 71 72 72 70 70 70 71 70 70 70 70 70 70 72 71 67 68 66 64 71 71 70 70 69 69 70
68 70 69 69 71 72 70 70 72 72 72 72 72 72 73 72 72 72 72 71 70 69 70 70 70 70 70 71 71 71 71 67 66 67 67 69 71 71 71 70 70 69 69
64 67 69 69 70 70 69 72 73 72 71 72 73 73 73 73 73 71 72 72 72 71 70 71 71 71 71 66 65 68 65 68 67 67 66 69 71 71 71 70 71 70 70
63 66 68 70 71 70 71 72 70 72 72 72 72 74 73 72 72 72 70 73 73 72 69 71 69 68 69 67 65 64 65 65 65 65 65 70 71 71 71 70 71 71 70
64 66 67 69 70 71 71 72 70 70 71 70 71 72 72 71 71 70 70 70 72 70 70 70 68 68 68 68 67 65 65 66 65 66 66 69 70 71 71 71 71 71 71
62 64 66 69 70 70 71 71 72 71 69 68 70 70 71 70 70 71 70 70 70 70 69 68 69 68 69 68 68 68 69 68 68 67 67 68 71 71 72 71 72 72 72
61 64 65 68 69 69 70 71 71 71 70 70 70 70 72 71 71 71 71 70 70 70 69 70 70 69 69 69 68 69 68 68 68 69 67 66 69 72 72 72 72 72 72
61 63 65 67 68 68 69 70 70 70 70 70 70 71 71 71 71 71 71 71 70 71 71 71 71 70 70 69 69 69 69 69 69 69 70 68 68 69 72 73 72 73 73
62 64 66 66 67 68 67 69 69 69 69 69 69 70 71 71 72 72 71 70 71 71 71 70 70 69 69 69 68 67 68 68 69 70 70 70 69 68 69 74 72 71 72
63 64 66 67 67 67 68 69 70 70 70 70 70 70 70 71 71 71 70 70 71 71 71 70 70 70 69 70 69 67 67 68 70 69 70 71 71 71 69 70 73 72 70
63 65 66 67 67 68 69 70 70 69 68 69 69 70 71 71 71 71 71 71 72 72 71 72 71 71 70 69 68 66 68 70 71 70 70 70 72 71 71 71 71 71 72
62 64 65 67 68 68 69 69 69 68 68 68 69 71 72 72 72 72 72 72 72 71 70 71 71 70 68 69 70 66 67 70 69 68 69 68 70 71 72 72 72 71 71
62 64 65 67 68 69 69 70 69 67 68 68 70 71 72 72 72 73 68 69 71 69 70 71 71 69 69 71 67 66 61 65 68 66 66 66 68 69 70 71 71 71 71
60 64 65 67 66 69 70 70 70 70 70 69 70 71 71 71 71 72 72 71 71 71 70 70 70 70 68 69 70 68 64 59 61 65 67 66 67 67 67 69 69 70 71
59 63 66 67 67 69 71 69 69 66 67 68 69 70 70 70 70 72 73 73 72 73 72 72 71 71 71 68 69 70 69 67 63 59 63 64 66 66 67 66 66 68 69
60 63 65 68 68 68 70 70 69 68 67 70 70 69 69 69 71 73 73 73 72 71 72 71 71 71 70 69 68 69 68 69 68 64 59 60 63 65 66 64 67 69 69
60 62 64 67 67 69 69 70 70 68 69 69 69 69 68 69 71 72 72 71 70 70 69 68 68 69 70 70 69 69 66 65 64 64 63 61 58 61 61 63 67 69 70

GFSSE_sfc_30mbdewp_288.txt.gz
Dewpoint
64 68 72 72 72 72 72 71 70 70 70 70 72 72 71 70 70 70 70 69 69 69 70 70 70 70 72 71 71 71 70 70 71 71 70 70 70 70 69 68 67 65 68
66 68 72 73 73 72 72 71 70 70 71 71 71 72 72 72 71 71 68 67 68 69 70 70 70 70 70 70 70 69 70 71 70 70 69 68 68 69 69 68 67 67 68
64 67 69 72 72 72 72 71 70 71 71 71 71 71 72 71 72 71 68 68 69 68 69 70 70 71 70 70 69 70 70 72 70 68 67 63 66 69 68 68 68 68 68
61 63 67 73 72 72 72 71 71 71 71 71 71 72 72 72 71 68 68 67 69 69 68 70 71 70 70 70 71 72 71 70 69 68 62 61 63 69 68 68 68 68 68
61 62 70 72 72 72 72 72 72 70 72 72 72 71 72 71 71 70 69 66 66 69 69 72 70 70 70 71 71 70 70 70 69 64 63 63 62 68 68 68 68 67 68
61 62 70 72 72 72 73 72 72 71 69 70 71 71 72 71 70 69 67 67 70 69 71 71 70 70 70 69 71 70 69 69 66 63 61 64 64 68 68 68 68 69 68
61 62 67 72 72 72 72 72 72 71 71 71 69 69 68 68 71 69 69 71 71 71 71 70 70 71 71 71 71 71 71 68 62 63 62 61 66 69 68 68 68 68 69
61 63 66 72 72 72 72 72 72 71 70 70 70 69 67 66 65 70 72 72 71 71 71 70 71 71 70 70 70 70 70 70 63 62 63 60 69 69 69 69 68 68 68
62 63 65 67 71 72 72 72 72 72 71 71 70 71 71 70 71 72 72 72 71 71 71 71 71 70 70 70 70 71 71 70 61 61 58 59 70 69 69 69 70 68 68
63 64 65 66 66 67 68 72 72 71 72 72 72 72 72 72 72 72 72 71 71 71 71 71 71 71 70 70 70 71 72 69 63 66 62 63 71 70 69 70 69 70 69
63 64 62 63 67 69 69 71 72 72 71 71 71 72 71 67 69 70 71 70 69 70 71 70 70 70 70 70 70 71 70 63 62 64 64 67 71 71 71 70 70 69 69
60 63 63 62 63 65 64 69 69 68 67 67 69 71 70 69 69 69 71 72 71 70 70 70 70 70 69 62 64 67 62 64 64 64 64 69 70 71 71 71 71 69 69
58 60 63 65 65 63 66 66 67 67 67 69 70 69 70 68 67 65 66 67 69 71 69 66 68 65 63 62 61 61 61 62 62 62 67 69 71 71 71 71 71 71 70
60 61 61 64 66 65 64 64 65 65 65 65 68 69 69 68 65 64 64 65 68 67 65 67 64 64 65 64 63 63 62 63 61 62 66 69 70 71 71 72 71 71 71
60 61 62 63 67 67 67 64 64 64 63 63 66 68 67 68 66 65 66 64 65 64 63 62 64 63 64 63 63 63 65 64 63 63 63 69 70 71 71 72 72 72 72
59 61 63 65 65 66 66 67 65 66 65 65 67 68 71 69 68 68 69 67 67 67 66 65 67 65 63 62 64 65 65 64 64 65 63 63 69 71 72 72 72 73 72
60 61 62 65 65 65 68 68 68 66 66 67 68 70 71 70 70 70 68 69 69 68 71 70 69 69 67 65 65 66 65 65 64 65 65 63 65 70 72 73 73 73 72
59 62 64 63 65 66 66 68 67 67 67 67 67 67 69 69 69 70 70 69 70 70 72 67 68 67 66 66 65 65 65 64 65 66 67 66 66 66 71 72 73 73 72
60 63 65 65 65 66 68 67 68 68 69 68 68 67 68 69 69 71 67 67 70 69 71 69 67 69 68 66 65 65 65 65 66 66 67 67 68 69 67 72 71 72 72
61 63 65 65 66 68 68 69 68 68 67 67 68 67 69 68 69 70 67 70 70 68 68 68 69 68 68 70 66 64 65 65 66 67 67 67 68 70 69 69 71 71 73
61 62 64 65 67 68 67 67 67 66 66 66 67 69 71 70 70 71 69 69 70 70 69 70 71 69 69 68 65 64 63 65 66 67 67 66 67 67 68 72 71 69 72
59 62 65 66 68 68 67 68 67 66 66 65 67 69 71 71 72 70 71 66 68 68 69 68 69 67 68 68 66 64 61 62 66 65 64 65 66 67 68 70 70 70 70
58 61 64 66 68 68 67 69 70 69 68 68 67 69 70 72 72 72 73 71 70 71 69 70 69 69 66 67 68 67 64 63 60 62 64 64 65 65 66 68 68 69 71
55 59 63 65 68 68 69 68 68 65 63 64 66 67 68 70 71 69 70 72 72 70 70 70 70 69 69 65 66 67 69 66 62 59 61 62 63 63 65 63 62 66 68
54 58 62 66 68 68 69 68 69 68 65 65 67 70 69 70 70 70 72 72 71 69 70 70 69 70 68 67 66 69 67 68 66 63 59 59 60 62 64 62 63 64 68
56 59 62 66 68 68 69 70 69 67 67 67 68 67 67 67 68 72 72 72 71 69 68 66 68 69 70 69 69 69 67 67 65 61 59 59 57 56 58 59 61 64 68

GFSSE_sfc_30mbdewp_291.txt.gz
Dewpoint
64 68 72 72 72 71 71 70 70 70 71 71 72 72 71 70 69 69 71 70 70 70 70 71 71 71 72 72 71 71 71 71 71 71 71 70 70 69 68 68 68 66 70
65 68 73 73 72 72 71 71 70 70 71 71 72 72 71 70 71 71 70 69 70 71 71 71 72 72 71 70 70 70 71 70 71 70 68 68 69 69 69 69 68 67 68
64 66 70 73 72 72 71 70 71 71 71 71 72 72 72 70 71 69 69 69 69 70 71 71 72 71 70 69 70 71 71 70 69 69 69 63 67 69 68 68 68 69 68
60 62 68 73 72 72 71 71 71 72 72 71 72 72 73 71 71 69 69 69 69 69 71 72 71 70 70 71 71 71 70 68 68 69 68 61 64 68 68 68 68 68 69
58 64 70 72 72 72 71 70 71 71 72 72 72 72 73 70 71 69 67 66 69 69 71 71 71 72 71 71 71 71 70 69 69 65 60 61 63 69 69 68 68 69 68
58 66 71 72 72 72 72 71 69 70 71 73 72 72 71 71 70 69 66 68 70 70 71 70 70 70 69 70 69 68 68 69 69 59 60 64 64 68 68 68 69 69 68
59 65 69 72 72 72 72 71 71 67 67 68 70 71 71 67 64 69 69 70 72 71 70 71 71 71 71 71 71 71 69 69 62 60 59 61 66 68 68 68 68 69 68
58 63 68 72 72 72 72 71 70 70 69 68 69 67 68 69 69 69 72 71 71 70 71 71 71 71 70 70 71 70 70 70 60 60 59 59 69 69 69 68 69 68 68
58 59 65 67 72 72 72 71 71 70 70 69 68 67 65 64 67 72 72 72 71 71 71 71 71 70 70 70 71 71 70 70 63 58 58 60 70 69 69 70 68 68 68
59 60 60 65 67 65 68 72 72 72 71 71 71 70 69 70 72 72 72 71 71 71 71 71 71 70 70 69 69 71 71 70 60 61 58 64 70 69 69 69 70 69 69
59 59 60 60 67 68 69 71 71 72 72 72 72 71 72 70 71 70 71 71 71 71 71 71 71 70 69 69 69 69 70 72 65 59 64 69 71 70 70 70 69 69 70
57 58 58 58 60 64 63 69 72 69 69 69 67 70 70 65 68 67 70 70 70 71 71 70 70 69 69 66 65 67 63 60 61 60 66 69 70 71 71 71 70 69 69
57 58 58 61 60 59 62 64 64 69 63 66 67 65 66 64 65 68 66 69 68 69 68 67 67 64 61 59 60 60 59 57 64 65 69 69 70 70 71 72 71 70 69
58 57 59 61 61 60 61 61 61 62 65 63 66 67 66 65 65 64 60 64 64 66 67 64 63 64 63 64 63 61 61 60 58 64 69 71 71 71 71 71 72 71 70
58 60 59 61 63 64 63 63 62 61 60 64 66 67 65 65 63 61 62 61 62 64 64 63 61 61 63 62 61 60 60 61 62 62 69 69 71 72 72 72 72 72 71
56 59 62 63 65 64 65 64 61 61 60 62 65 65 70 68 64 63 65 64 65 69 69 66 62 64 64 61 60 62 64 63 64 64 61 71 71 70 72 73 73 73 72
57 59 63 63 64 65 65 66 63 63 62 65 65 69 72 69 69 68 66 65 66 69 70 67 66 68 66 65 64 64 64 65 64 64 62 63 70 71 72 72 73 74 73
58 61 62 61 63 65 66 67 67 67 65 64 68 67 69 69 69 69 67 67 66 67 67 68 70 67 69 68 67 67 67 66 66 66 66 66 68 70 72 73 72 72 73
60 62 63 62 63 65 67 68 69 68 68 69 68 64 68 66 67 69 66 69 70 69 70 68 69 69 66 65 67 66 66 65 67 65 66 66 68 68 70 72 71 71 72
59 62 63 64 65 66 67 67 68 68 69 69 68 68 69 67 69 69 68 69 70 69 68 67 67 67 67 67 66 64 66 66 66 67 66 67 68 68 69 72 72 71 72
59 61 64 64 66 67 66 65 66 67 67 65 66 67 68 68 67 70 68 68 69 68 68 69 69 69 67 70 64 62 64 64 63 65 65 66 65 65 68 70 70 72 72
58 60 63 65 67 68 66 65 63 66 66 63 65 67 69 69 70 70 71 67 67 68 70 70 70 70 68 70 67 65 62 64 65 64 64 64 64 65 66 68 70 70 71
57 60 63 65 68 68 67 67 67 66 67 66 66 68 69 71 71 71 71 71 71 70 67 69 68 69 68 68 66 67 64 62 64 64 63 62 64 62 62 68 68 69 70
55 59 62 66 67 68 68 67 65 64 63 67 64 66 67 70 70 70 70 71 73 73 70 70 70 71 70 66 66 68 67 67 62 62 63 63 62 62 62 62 62 67 68
53 56 61 66 68 67 68 69 67 67 64 64 66 69 70 69 70 69 70 70 71 70 71 71 69 69 68 65 61 68 69 69 66 62 60 62 64 62 62 61 59 61 67
53 55 59 65 69 69 69 70 69 67 67 65 66 68 66 66 68 70 71 71 71 70 69 66 66 65 67 69 69 69 68 67 65 65 64 61 59 57 57 55 56 59 63